sat.trackr.live / text

‹ back to catalog

STARLINK-36426

NORAD 67560 · 2026-014AA

PAYLOAD ACTIVE UNKNOWN

§ Identity

Operator
Country
US
Launch date
2026-01-22
Launch site
AFWTR
Launch vehicle
Mass (kg)
RCS (m²)

Purposes: comms

External: N2YO · Heavens-Above · Gunter

§ Orbital elements

Epoch: 2026-09-19T10:53:46.900320Z

Period
93.91 min
Inclination
97.2860°
Eccentricity
0.0001615
Mean motion
15.33447600 rev/d
Perigee alt
464.4 km
Apogee alt
466.6 km
Semi-major
6,843.7 km
B*
4.1872e-4
RAAN
147.9211°
Arg perigee
93.7000°
Mean anomaly
266.4427°
Rev number
3,847

§ Raw data

STARLINK-364261 67560U 26014AA  26262.45401505  .00013468  00000+0  41872-3 0  99952 67560  97.2860 147.9211 0001615  93.7000 266.4427 15.33447600 38471

JSON: /api/v1/satellites/67560 · /tle

For live sub-satellite position, see the globe view (requires WebGL).

§ Visibility from observer

Set your observer location to see the next 7 days of passes ≥ 10°. The values pass through the URL so the page stays shareable.

No JS? Fill the form by hand. The geolocation button needs JavaScript.